Simultaneous Nadir Overpasses (SNOs) Predictions

Prediction of SNOs between TERRA and METOP-C Satellite Orbit:

Table of predicted SNOs for the next 14.0 days since TLE Epoch: 8/10/2019
Index Date (TERRA) Time (TERRA) Lat,Lon (TERRA) SZA (TERRA ) Date (METOP-C) Time (METOP-C) Lat,Lon (METOP-C) SZA (METOP-C ) Distance(km) Time Diff (sec)
1 08/12/2019 19:08:30 -81.31, 120.13 110.85 08/12/2019 19:07:23 -81.30, 120.23 110.87 1.77 67
2 08/12/2019 19:57:56 81.31, -72.11 69.19 08/12/2019 19:58:04 81.31, -72.26 69.17 2.78 8
3 08/15/2019 14:42:45 -81.30,-173.62 110.00 08/15/2019 14:41:46 -81.30,-173.55 110.02 1.23 59
4 08/15/2019 15:32:11 81.30, -5.88 70.03 08/15/2019 15:32:27 81.30, -6.07 70.02 3.28 16
5 08/18/2019 10:16:59 -81.31,-107.04 109.07 08/18/2019 10:16:08 -81.30,-106.94 109.09 1.72 51
6 08/18/2019 11:06:25 81.31, 60.69 70.95 08/18/2019 11:06:49 81.30, 60.50 70.94 3.12 24
7 08/21/2019 05:51:13 -81.29, -40.88 108.18 08/21/2019 05:50:30 -81.30, -40.71 108.18 2.98 43
8 08/21/2019 06:40:38 81.31, 127.21 71.90 08/21/2019 06:41:10 81.31, 127.08 71.90 2.32 32
9 08/24/2019 01:25:27 -81.29, 25.62 107.21 08/24/2019 01:24:53 -81.30, 25.52 107.24 1.83 34




NCC Satellite Simultaneous Nadir Overpasses (SNOs) Prediction Service
